Zurück zum Katalog

KUIPER-00600

AktivKommunikationLEO
NORAD 69284·PAYLOAD·🇺🇸 United States

Gestartet May 29, 2026 von Vandenberg Space Force Base

Loading…

Nächste Überflüge (nächste 24 Stunden)

TLE

AktuellSource: CelesTrak SupGP

Epoche: Sep 15, 2026, 03:38 UTC

1 69284C 26118T   26258.15144676  .00000894  00000+0  11708-3 0  2582
2 69284  51.8991 347.7632 0001690  31.7251 307.8856 14.79926990    15

Verfolge KUIPER-00600 in Echtzeit mit AllMySat

Download on the App Store